Location: Country View Observatory
(32.9873°N, 83.6444°W)
Time: 04:24:01
(UTC-04:00)

Hubble Space Telescope - Visible Passes

Search period start: 22 October 2019 00:00
Search period end: 01 November 2019 00:00
Orbit: 536 x 540 km, 28.5° (Epoch: 21 October)

Date Brightness Start Highest point End Pass type
(mag) Time Alt. Az. Time Alt. Az. Time Alt. Az.
28 Oct 3.5 05:37:44 11° SSE 05:37:55 11° SSE 05:39:17 10° SE visible
28 Oct 2.4 07:14:58 10° SW 07:18:34 30° SSE 07:22:11 10° ESE visible
29 Oct 3.5 05:28:07 14° SE 05:28:07 14° SE 05:29:29 10° ESE visible
29 Oct 2.1 07:04:12 10° SW 07:07:56 33° SSE 07:11:41 10° ESE visible
30 Oct 3.6 05:18:25 14° SE 05:18:25 14° SE 05:19:20 10° ESE visible
30 Oct 1.9 06:53:46 12° WSW 06:57:18 37° S 07:01:08 10° ESE visible
31 Oct 3.9 05:08:39 12° ESE 05:08:39 12° ESE 05:09:02 10° ESE visible
31 Oct 1.7 06:44:00 18° SW 06:46:42 40° S 06:50:34 10° ESE visible
